Mojave, CA

7:59 PM PST on December 13, 2019 (GMT -0800)
Mojave

Weather History for KMHV - May, 2019

Change the Weather History Date:

Friday, May 24, 2019

  Actual Average Record
Temperature  
Mean Temperature 56 °F -  
Max Temperature 71 °F 84 °F 94 °F (1966)
Min Temperature 42 °F 60 °F 38 °F (1980)
Degree Days  
Heating Degree Days 8    
Growing Degree Days 6 (Base 50)    
Moisture  
Dew Point 44 °F    
Average Humidity 63    
Maximum Humidity 100    
Minimum Humidity 27    
Precipitation  
Precipitation 0.00 in - - ()
Sea Level Pressure  
Sea Level Pressure 29.96 in    
Wind  
Wind Speed 8 mph (NW)    
Max Wind Speed 21 mph    
Max Gust Speed 28 mph    
Visibility 10 miles    
Events      
Averages and records for this station are not official NWS values.
T = Trace of Precipitation, MM = Missing Value Source: NWS Daily Summary

Daily Weather History Graph

Daily Weather History Graph

Search for Another Location

Airport or City:

Astronomy

May. 24, 2019 Rise Set
Actual Time 5:43 AM PDT 7:56 PM PDT
Civil Twilight 5:14 AM PDT 8:24 PM PDT
Nautical Twilight 4:39 AM PDT 9:00 PM PDT
Astronomical Twilight 4:01 AM PDT 9:38 PM PDT
Moon 12:24 AM PDT (5/24) 10:47 AM PDT (5/24)
Length of Visible Light 15h 10m
Length of Day
14h 12m
Waning Gibbous, 68% of the Moon is Illuminated
May 24
Waning Gibbous
May 26
Last Quarter
Jun 3
New
Jun 9
First Quarter
Jun 17
Full

Hourly Weather History & Observations

Time (PDT) Temp. Windchill Dew Point Humidity Pressure Visibility Wind Dir Wind Speed Gust Speed Precip Events Conditions
12:00 AM 53.6 °F - 46.4 °F 77% 29.98 in 10.0 mi West 5.8 mph - N/A   Overcast
12:20 AM 53.6 °F - 46.4 °F 77% 29.97 in 10.0 mi SSW 10.4 mph - N/A   Overcast
12:40 AM 51.8 °F - 44.6 °F 76% 29.97 in 10.0 mi WSW 8.1 mph - N/A   Scattered Clouds
1:00 AM 50.0 °F - 44.6 °F 82% 29.97 in 10.0 mi SW 10.4 mph - N/A   Clear
1:20 AM 50.0 °F - 44.6 °F 82% 29.97 in 10.0 mi SSW 10.4 mph - N/A   Clear
1:40 AM 50.0 °F - 44.6 °F 82% 29.97 in 10.0 mi SW 9.2 mph - N/A   Clear
2:00 AM 48.2 °F - 44.6 °F 87% 29.96 in 10.0 mi WSW 6.9 mph - N/A   Clear
2:20 AM 48.2 °F - 44.6 °F 87% 29.96 in 10.0 mi West 4.6 mph - N/A   Clear
2:40 AM 48.2 °F - 44.6 °F 87% 29.98 in 10.0 mi SE 4.6 mph - N/A   Clear
3:00 AM 46.4 °F 42.4 °F 44.6 °F 93% 29.98 in 10.0 mi West 8.1 mph - N/A   Clear
3:20 AM 46.4 °F 42.9 °F 44.6 °F 93% 29.98 in 10.0 mi NW 6.9 mph - N/A   Clear
3:40 AM 46.4 °F 44.3 °F 44.6 °F 93% 29.98 in 10.0 mi Variable 4.6 mph - N/A   Clear
4:00 AM 46.4 °F 45.2 °F 44.6 °F 93% 29.98 in 10.0 mi WSW 3.5 mph - N/A   Clear
4:20 AM 46.4 °F 44.3 °F 44.6 °F 93% 29.99 in 10.0 mi West 4.6 mph - N/A   Clear
4:40 AM 46.4 °F - 44.6 °F 93% 29.98 in 10.0 mi Calm Calm - N/A   Clear
5:00 AM 44.6 °F - 44.6 °F 100% 29.99 in 10.0 mi Calm Calm - N/A   Clear
5:20 AM 44.6 °F - 44.6 °F 100% 29.99 in 10.0 mi Calm Calm - N/A   Clear
5:40 AM 42.8 °F 39.3 °F 42.8 °F 100% 29.99 in 10.0 mi WNW 5.8 mph - N/A   Clear
6:00 AM 42.8 °F - 42.8 °F 100% 29.99 in 10.0 mi Calm Calm - N/A   Clear
6:20 AM 44.6 °F 42.2 °F 44.6 °F 100% 30.00 in 10.0 mi SE 4.6 mph - N/A   Clear
6:40 AM 46.4 °F - 44.6 °F 93% 30.00 in 10.0 mi Calm Calm - N/A   Clear
7:00 AM 48.2 °F - 46.4 °F 93% 30.00 in 10.0 mi NNE 8.1 mph - N/A   Clear
7:20 AM 50.0 °F - 46.4 °F 87% 30.01 in 10.0 mi NNE 10.4 mph - N/A   Clear
7:40 AM 50.0 °F - 46.4 °F 87% 30.01 in 10.0 mi ENE 9.2 mph - N/A   Partly Cloudy
8:00 AM 50.0 °F - 46.4 °F 87% 30.02 in 10.0 mi East 9.2 mph - N/A   Mostly Cloudy
8:20 AM 51.8 °F - 46.4 °F 82% 30.03 in 10.0 mi East 8.1 mph - N/A   Mostly Cloudy
8:40 AM 53.6 °F - 46.4 °F 77% 30.03 in 10.0 mi ENE 4.6 mph - N/A   Mostly Cloudy
9:00 AM 53.6 °F - 46.4 °F 77% 30.03 in 10.0 mi Calm Calm - N/A   Overcast
9:20 AM 57.2 °F - 46.4 °F 67% 30.03 in 10.0 mi Variable 4.6 mph - N/A   Scattered Clouds
9:40 AM 59.0 °F - 46.4 °F 63% 30.03 in 10.0 mi NE 8.1 mph - N/A   Clear
10:00 AM 60.8 °F - 46.4 °F 59% 30.03 in 10.0 mi NE 11.5 mph - N/A   Clear
10:20 AM 62.6 °F - 44.6 °F 52% 30.03 in 10.0 mi NE 9.2 mph - N/A   Clear
10:40 AM 62.6 °F - 44.6 °F 52% 30.02 in 10.0 mi ENE 11.5 mph - N/A   Clear
11:00 AM 62.6 °F - 44.6 °F 52% 30.01 in 10.0 mi ENE 12.7 mph - N/A   Clear
11:20 AM 64.4 °F - 44.6 °F 49% 30.01 in 10.0 mi NE 8.1 mph 16.1 mph N/A   Clear
11:40 AM 66.2 °F - 44.6 °F 46% 30.01 in 10.0 mi East 10.4 mph - N/A   Clear
12:00 PM 66.2 °F - 44.6 °F 46% 30.01 in 10.0 mi NNE 11.5 mph - N/A   Clear
12:20 PM 66.2 °F - 44.6 °F 46% 30.00 in 10.0 mi ENE 6.9 mph 12.7 mph N/A   Partly Cloudy
12:40 PM 68.0 °F - 42.8 °F 40% 29.99 in 10.0 mi Variable 5.8 mph 13.8 mph N/A   Clear
1:00 PM 68.0 °F - 42.8 °F 40% 29.99 in 10.0 mi East 9.2 mph - N/A   Scattered Clouds
1:20 PM 68.0 °F - 41.0 °F 37% 29.99 in 10.0 mi Variable 6.9 mph 18.4 mph N/A   Mostly Cloudy
1:40 PM 68.0 °F - 39.2 °F 35% 29.98 in 10.0 mi ESE 8.1 mph 16.1 mph N/A   Scattered Clouds
2:00 PM 69.8 °F - 39.2 °F 33% 29.97 in 10.0 mi NE 6.9 mph 13.8 mph N/A   Partly Cloudy
2:20 PM 69.8 °F - 39.2 °F 33% 29.97 in 10.0 mi Calm Calm 12.7 mph N/A   Clear
2:40 PM 71.6 °F - 39.2 °F 31% 29.96 in 10.0 mi SSE 6.9 mph - N/A   Clear
3:00 PM 71.6 °F - 39.2 °F 31% 29.95 in 10.0 mi Calm Calm - N/A   Partly Cloudy
3:20 PM 71.6 °F - 39.2 °F 31% 29.95 in 10.0 mi Variable 5.8 mph 15.0 mph N/A   Partly Cloudy
3:40 PM 71.6 °F - 37.4 °F 29% 29.93 in 10.0 mi Variable 3.5 mph - N/A   Partly Cloudy
4:00 PM 71.6 °F - 37.4 °F 29% 29.92 in 10.0 mi NE 5.8 mph - N/A   Partly Cloudy
4:20 PM 71.6 °F - 35.6 °F 27% 29.92 in 10.0 mi East 5.8 mph - N/A   Clear
4:40 PM 71.6 °F - 35.6 °F 27% 29.91 in 10.0 mi Variable 4.6 mph - N/A   Clear
5:00 PM 71.6 °F - 35.6 °F 27% 29.91 in 10.0 mi WSW 5.8 mph - N/A   Clear
5:20 PM 71.6 °F - 35.6 °F 27% 29.90 in 10.0 mi Variable 4.6 mph - N/A   Clear
5:40 PM 71.6 °F - 35.6 °F 27% 29.90 in 10.0 mi Calm Calm - N/A   Clear
6:00 PM 71.6 °F - 35.6 °F 27% 29.90 in 10.0 mi Variable 4.6 mph - N/A   Clear
6:20 PM 69.8 °F - 48.2 °F 46% 29.89 in 10.0 mi WNW 10.4 mph 17.3 mph N/A   Clear
6:40 PM 68.0 °F - 48.2 °F 49% 29.89 in 10.0 mi WNW 11.5 mph - N/A   Clear
7:00 PM 68.0 °F - 48.2 °F 49% 29.89 in 10.0 mi WNW 11.5 mph - N/A   Clear
7:20 PM 68.0 °F - 48.2 °F 49% 29.89 in 10.0 mi WNW 12.7 mph - N/A   Clear
7:40 PM 66.2 °F - 48.2 °F 52% 29.89 in 10.0 mi WNW 11.5 mph - N/A   Clear
8:00 PM 64.4 °F - 48.2 °F 56% 29.89 in 10.0 mi WNW 13.8 mph - N/A   Clear
8:20 PM 64.4 °F - 48.2 °F 56% 29.90 in 10.0 mi West 11.5 mph - N/A   Clear
8:40 PM 64.4 °F - 48.2 °F 56% 29.90 in 10.0 mi WNW 13.8 mph - N/A   Clear
9:00 PM 62.6 °F - 48.2 °F 59% 29.90 in 10.0 mi WNW 18.4 mph - N/A   Clear
9:20 PM 62.6 °F - 48.2 °F 59% 29.90 in 10.0 mi WNW 19.6 mph 25.3 mph N/A   Clear
9:40 PM 62.6 °F - 48.2 °F 59% 29.90 in 10.0 mi WNW 18.4 mph - N/A   Clear
10:00 PM 62.6 °F - 48.2 °F 59% 29.90 in 10.0 mi WNW 19.6 mph - N/A   Clear
10:20 PM 62.6 °F - 48.2 °F 59% 29.90 in 10.0 mi WNW 15.0 mph - N/A   Clear
10:40 PM 60.8 °F - 48.2 °F 63% 29.90 in 10.0 mi WNW 16.1 mph 21.9 mph N/A   Clear
11:00 PM 60.8 °F - 48.2 °F 63% 29.90 in 10.0 mi WNW 17.3 mph 26.5 mph N/A   Clear
11:20 PM 60.8 °F - 48.2 °F 63% 29.90 in 10.0 mi NW 20.7 mph 27.6 mph N/A   Clear
11:40 PM 60.8 °F - 48.2 °F 63% 29.90 in 10.0 mi NW 20.7 mph 27.6 mph N/A   Clear